Time,TemperatureF,DewpointF,PressureIn,WindDirection,WindDirectionDegrees,WindSpeedMPH,WindSpeedGustMPH,Humidity,HourlyPrecipIn,Conditions,Clouds,dailyrainin,SoftwareType,DateUTC
2013-08-07 00:00:00,60.6,51.9,30.18,SW,225,4.2,-999.0,73,-99.99,,,0.00,Acu-Link.com,2013-08-07 04:00:00,
2013-08-07 00:15:00,60.1,52.1,30.18,WSW,247,4.2,-999.0,75,-99.99,,,0.00,Acu-Link.com,2013-08-07 04:15:00,
2013-08-07 00:31:00,59.7,52.1,30.18,SSE,157,3.2,-999.0,76,-99.99,,,0.00,Acu-Link.com,2013-08-07 04:31:00,
2013-08-07 00:46:00,59.4,51.8,30.18,SW,225,5.3,-999.0,76,-99.99,,,0.00,Acu-Link.com,2013-08-07 04:46:00,
2013-08-07 01:01:00,59.2,52.0,30.18,WSW,247,4.2,-999.0,77,-99.99,,,0.00,Acu-Link.com,2013-08-07 05:01:00,
2013-08-07 01:16:00,58.6,51.8,30.18,WSW,247,5.3,-999.0,78,-99.99,,,0.00,Acu-Link.com,2013-08-07 05:16:00,
2013-08-07 01:31:00,58.6,51.8,30.18,WSW,247,3.2,-999.0,78,-99.99,,,0.00,Acu-Link.com,2013-08-07 05:31:00,
2013-08-07 01:47:00,58.6,51.8,30.19,WSW,247,4.2,-999.0,78,-99.99,,,0.00,Acu-Link.com,2013-08-07 05:47:00,
2013-08-07 02:02:00,58.1,51.6,30.19,SW,225,4.7,-999.0,79,-99.99,,,0.00,Acu-Link.com,2013-08-07 06:02:00,
2013-08-07 02:17:00,58.5,51.7,30.19,SSW,202,6.3,-999.0,78,-99.99,,,0.00,Acu-Link.com,2013-08-07 06:17:00,
2013-08-07 02:32:00,58.3,51.5,30.19,SW,225,2.7,-999.0,78,-99.99,,,0.00,Acu-Link.com,2013-08-07 06:32:00,
2013-08-07 02:47:00,57.6,51.5,30.20,SSW,202,2.2,-999.0,80,-99.99,,,0.00,Acu-Link.com,2013-08-07 06:47:00,
2013-08-07 03:03:00,57.2,51.4,30.20,South,180,5.3,-999.0,81,-99.99,,,0.00,Acu-Link.com,2013-08-07 07:03:00,
2013-08-07 03:18:00,57.0,51.2,30.20,West,270,5.3,-999.0,81,-99.99,,,0.00,Acu-Link.com,2013-08-07 07:18:00,
2013-08-07 03:33:00,56.7,51.3,30.20,SW,225,3.7,-999.0,82,-99.99,,,0.00,Acu-Link.com,2013-08-07 07:33:00,
2013-08-07 03:48:00,56.5,51.1,30.20,WSW,247,5.8,-999.0,82,-99.99,,,0.00,Acu-Link.com,2013-08-07 07:48:00,
2013-08-07 04:04:00,56.3,50.9,30.21,SW,225,4.2,-999.0,82,-99.99,,,0.00,Acu-Link.com,2013-08-07 08:04:00,
2013-08-07 04:19:00,56.3,50.9,30.21,SSW,202,4.2,-999.0,82,-99.99,,,0.00,Acu-Link.com,2013-08-07 08:19:00,
2013-08-07 04:34:00,56.1,51.0,30.21,SW,225,3.7,-999.0,83,-99.99,,,0.00,Acu-Link.com,2013-08-07 08:34:00,
2013-08-07 04:49:00,55.9,51.1,30.21,SW,225,4.2,-999.0,84,-99.99,,,0.00,Acu-Link.com,2013-08-07 08:49:00,
2013-08-07 05:04:00,55.9,51.1,30.22,SSW,202,3.7,-999.0,84,-99.99,,,0.00,Acu-Link.com,2013-08-07 09:04:00,
2013-08-07 05:19:00,55.8,51.0,30.21,SW,225,2.7,-999.0,84,-99.99,,,0.00,Acu-Link.com,2013-08-07 09:19:00,
2013-08-07 05:34:00,55.6,51.2,30.21,SW,225,2.2,-999.0,85,-99.99,,,0.00,Acu-Link.com,2013-08-07 09:34:00,
2013-08-07 05:50:00,55.8,51.4,30.22,WSW,247,4.2,-999.0,85,-99.99,,,0.00,Acu-Link.com,2013-08-07 09:50:00,
2013-08-07 06:05:00,55.6,51.5,30.22,SW,225,6.8,-999.0,86,-99.99,,,0.00,Acu-Link.com,2013-08-07 10:05:00,
2013-08-07 06:20:00,55.8,51.7,30.23,South,180,4.2,-999.0,86,-99.99,,,0.00,Acu-Link.com,2013-08-07 10:20:00,
2013-08-07 06:35:00,56.3,51.8,30.22,SW,225,5.8,-999.0,85,-99.99,,,0.00,Acu-Link.com,2013-08-07 10:35:00,
2013-08-07 06:50:00,57.4,52.6,30.23,WSW,247,3.2,-999.0,84,-99.99,,,0.00,Acu-Link.com,2013-08-07 10:50:00,
2013-08-07 07:06:00,58.5,52.7,30.23,WSW,247,3.2,-999.0,81,-99.99,,,0.00,Acu-Link.com,2013-08-07 11:06:00,
2013-08-07 07:21:00,60.4,53.9,30.24,SSW,202,2.2,-999.0,79,-99.99,,,0.00,Acu-Link.com,2013-08-07 11:21:00,
2013-08-07 07:36:00,62.6,54.9,30.23,WSW,247,1.7,-999.0,76,-99.99,,,0.00,Acu-Link.com,2013-08-07 11:36:00,
2013-08-07 07:51:00,65.3,56.0,30.24,West,270,2.2,-999.0,72,-99.99,,,0.00,Acu-Link.com,2013-08-07 11:51:00,
2013-08-07 08:07:00,66.4,56.7,30.24,WSW,247,4.2,-999.0,71,-99.99,,,0.00,Acu-Link.com,2013-08-07 12:07:00,
2013-08-07 08:22:00,68.0,56.6,30.23,ESE,112,2.2,-999.0,67,-99.99,,,0.00,Acu-Link.com,2013-08-07 12:22:00,
2013-08-07 08:37:00,69.8,57.1,30.23,WSW,247,3.7,-999.0,64,-99.99,,,0.00,Acu-Link.com,2013-08-07 12:37:00,
2013-08-07 08:52:00,70.7,58.3,30.23,ENE,67,2.7,-999.0,65,-99.99,,,0.00,Acu-Link.com,2013-08-07 12:52:00,
2013-08-07 09:07:00,70.0,58.1,30.23,SSW,202,3.2,-999.0,66,-99.99,,,0.00,Acu-Link.com,2013-08-07 13:07:00,
2013-08-07 09:23:00,68.5,57.1,30.22,SW,225,2.2,-999.0,67,-99.99,,,0.00,Acu-Link.com,2013-08-07 13:23:00,
2013-08-07 09:38:00,71.2,57.5,30.22,SE,135,5.3,-999.0,62,-99.99,,,0.00,Acu-Link.com,2013-08-07 13:38:00,
2013-08-07 09:53:00,71.6,57.9,30.22,SSW,202,2.2,-999.0,62,-99.99,,,0.00,Acu-Link.com,2013-08-07 13:53:00,
2013-08-07 10:09:00,72.5,56.9,30.22,SSW,202,7.3,-999.0,58,-99.99,,,0.00,Acu-Link.com,2013-08-07 14:09:00,
2013-08-07 10:24:00,73.8,56.6,30.22,East,90,2.2,-999.0,55,-99.99,,,0.00,Acu-Link.com,2013-08-07 14:24:00,
2013-08-07 10:39:00,73.4,54.7,30.23,SW,225,3.7,-999.0,52,-99.99,,,0.00,Acu-Link.com,2013-08-07 14:39:00,
2013-08-07 10:54:00,75.0,55.1,30.22,SE,135,2.2,-999.0,50,-99.99,,,0.00,Acu-Link.com,2013-08-07 14:54:00,
2013-08-07 11:09:00,75.0,54.5,30.22,WSW,247,5.8,-999.0,49,-99.99,,,0.00,Acu-Link.com,2013-08-07 15:09:00,
2013-08-07 11:25:00,75.9,54.8,30.21,WSW,247,3.2,-999.0,48,-99.99,,,0.00,Acu-Link.com,2013-08-07 15:25:00,
2013-08-07 11:40:00,75.9,53.6,30.21,ESE,112,3.2,-999.0,46,-99.99,,,0.00,Acu-Link.com,2013-08-07 15:40:00,
2013-08-07 11:55:00,76.6,53.7,30.21,SW,225,4.7,-999.0,45,-99.99,,,0.00,Acu-Link.com,2013-08-07 15:55:00,
2013-08-07 12:10:00,77.4,55.0,30.20,SW,225,2.7,-999.0,46,-99.99,,,0.00,Acu-Link.com,2013-08-07 16:10:00,
2013-08-07 12:25:00,77.9,54.8,30.19,SSE,157,2.2,-999.0,45,-99.99,,,0.00,Acu-Link.com,2013-08-07 16:25:00,
2013-08-07 12:41:00,78.3,54.6,30.19,WSW,247,5.3,-999.0,44,-99.99,,,0.00,Acu-Link.com,2013-08-07 16:41:00,
2013-08-07 12:56:00,79.2,56.0,30.20,SE,135,2.2,-999.0,45,-99.99,,,0.00,Acu-Link.com,2013-08-07 16:56:00,
2013-08-07 13:11:00,78.4,54.0,30.19,SSW,202,7.8,-999.0,43,-99.99,,,0.00,Acu-Link.com,2013-08-07 17:11:00,
2013-08-07 13:26:00,79.5,53.0,30.19,SW,225,6.8,-999.0,40,-99.99,,,0.00,Acu-Link.com,2013-08-07 17:26:00,
2013-08-07 13:41:00,79.9,54.1,30.19,WSW,247,4.7,-999.0,41,-99.99,,,0.00,Acu-Link.com,2013-08-07 17:41:00,
2013-08-07 13:57:00,79.5,53.7,30.18,South,180,4.2,-999.0,41,-99.99,,,0.00,Acu-Link.com,2013-08-07 17:57:00,
2013-08-07 14:12:00,79.9,54.7,30.18,ESE,112,5.3,-999.0,42,-99.99,,,0.00,Acu-Link.com,2013-08-07 18:12:00,
2013-08-07 14:27:00,79.9,56.0,30.18,ESE,112,3.7,-999.0,44,-99.99,,,0.00,Acu-Link.com,2013-08-07 18:27:00,
2013-08-07 14:42:00,79.9,57.2,30.18,West,270,3.2,-999.0,46,-99.99,,,0.00,Acu-Link.com,2013-08-07 18:42:00,
2013-08-07 14:58:00,80.1,58.0,30.17,SSW,202,3.7,-999.0,47,-99.99,,,0.00,Acu-Link.com,2013-08-07 18:58:00,
2013-08-07 15:13:00,79.3,56.7,30.17,SSW,202,3.7,-999.0,46,-99.99,,,0.00,Acu-Link.com,2013-08-07 19:13:00,
2013-08-07 15:28:00,79.0,57.0,30.16,SW,225,4.2,-999.0,47,-99.99,,,0.00,Acu-Link.com,2013-08-07 19:28:00,
2013-08-07 15:43:00,79.0,56.4,30.16,WNW,292,2.7,-999.0,46,-99.99,,,0.00,Acu-Link.com,2013-08-07 19:43:00,
2013-08-07 15:58:00,78.1,55.6,30.15,SE,135,6.8,-999.0,46,-99.99,,,0.00,Acu-Link.com,2013-08-07 19:58:00,
2013-08-07 16:14:00,77.5,54.5,30.15,SSE,157,6.3,-999.0,45,-99.99,,,0.00,Acu-Link.com,2013-08-07 20:14:00,
2013-08-07 16:29:00,77.5,55.1,30.16,SE,135,6.3,-999.0,46,-99.99,,,0.00,Acu-Link.com,2013-08-07 20:29:00,
2013-08-07 16:44:00,77.4,55.0,30.16,SW,225,2.7,-999.0,46,-99.99,,,0.00,Acu-Link.com,2013-08-07 20:44:00,
2013-08-07 16:59:00,75.9,54.2,30.15,SSE,157,4.2,-999.0,47,-99.99,,,0.00,Acu-Link.com,2013-08-07 20:59:00,
2013-08-07 17:14:00,75.4,53.8,30.15,SSE,157,6.3,-999.0,47,-99.99,,,0.00,Acu-Link.com,2013-08-07 21:14:00,
2013-08-07 17:30:00,75.2,53.6,30.15,WNW,292,7.3,-999.0,47,-99.99,,,0.00,Acu-Link.com,2013-08-07 21:30:00,
2013-08-07 17:45:00,75.7,53.4,30.15,East,90,4.2,-999.0,46,-99.99,,,0.00,Acu-Link.com,2013-08-07 21:45:00,
2013-08-07 18:00:00,75.7,52.2,30.15,ESE,112,6.8,-999.0,44,-99.99,,,0.00,Acu-Link.com,2013-08-07 22:00:00,
2013-08-07 18:15:00,74.8,52.6,30.14,ESE,112,5.3,-999.0,46,-99.99,,,0.00,Acu-Link.com,2013-08-07 22:15:00,
2013-08-07 18:31:00,73.6,52.7,30.15,ESE,112,4.2,-999.0,48,-99.99,,,0.00,Acu-Link.com,2013-08-07 22:31:00,
2013-08-07 18:46:00,72.9,53.2,30.14,ESE,112,2.2,-999.0,50,-99.99,,,0.00,Acu-Link.com,2013-08-07 22:46:00,
2013-08-07 19:01:00,71.2,52.7,30.14,ESE,112,4.2,-999.0,52,-99.99,,,0.00,Acu-Link.com,2013-08-07 23:01:00,
2013-08-07 19:16:00,68.5,52.7,30.15,SSE,157,1.7,-999.0,57,-99.99,,,0.00,Acu-Link.com,2013-08-07 23:16:00,
2013-08-07 19:31:00,66.2,52.8,30.15,ESE,112,4.2,-999.0,62,-99.99,,,0.00,Acu-Link.com,2013-08-07 23:31:00,
2013-08-07 19:47:00,64.8,53.2,30.14,East,90,3.7,-999.0,66,-99.99,,,0.00,Acu-Link.com,2013-08-07 23:47:00,
2013-08-07 20:02:00,63.5,53.1,30.15,East,90,1.1,-999.0,69,-99.99,,,0.00,Acu-Link.com,2013-08-08 00:02:00,
2013-08-07 20:17:00,62.2,53.1,30.14,NE,45,2.2,-999.0,72,-99.99,,,0.00,Acu-Link.com,2013-08-08 00:17:00,
2013-08-07 20:32:00,61.2,53.6,30.14,ESE,112,3.2,-999.0,76,-99.99,,,0.00,Acu-Link.com,2013-08-08 00:32:00,
2013-08-07 20:47:00,60.6,53.3,30.15,SE,135,2.7,-999.0,77,-99.99,,,0.00,Acu-Link.com,2013-08-08 00:47:00,
2013-08-07 21:03:00,60.3,54.1,30.15,ESE,112,2.2,-999.0,80,-99.99,,,0.00,Acu-Link.com,2013-08-08 01:03:00,
2013-08-07 21:18:00,60.1,54.6,30.16,SE,135,3.2,-999.0,82,-99.99,,,0.00,Acu-Link.com,2013-08-08 01:18:00,
2013-08-07 21:33:00,59.4,54.6,30.16,SE,135,3.7,-999.0,84,-99.99,,,0.00,Acu-Link.com,2013-08-08 01:33:00,
2013-08-07 21:48:00,59.0,54.5,30.15,ESE,112,3.7,-999.0,85,-99.99,,,0.00,Acu-Link.com,2013-08-08 01:48:00,
2013-08-07 22:03:00,58.8,54.6,30.17,ESE,112,1.1,-999.0,86,-99.99,,,0.00,Acu-Link.com,2013-08-08 02:03:00,
2013-08-07 22:19:00,58.6,54.7,30.15,SE,135,1.7,-999.0,87,-99.99,,,0.00,Acu-Link.com,2013-08-08 02:19:00,
2013-08-07 22:34:00,58.6,55.1,30.16,SSW,202,1.7,-999.0,88,-99.99,,,0.00,Acu-Link.com,2013-08-08 02:34:00,
2013-08-07 22:49:00,58.3,55.1,30.15,ESE,112,2.7,-999.0,89,-99.99,,,0.00,Acu-Link.com,2013-08-08 02:49:00,
2013-08-07 23:04:00,58.1,55.2,30.15,ESE,112,2.2,-999.0,90,-99.99,,,0.00,Acu-Link.com,2013-08-08 03:04:00,
2013-08-07 23:20:00,57.9,55.3,30.15,ESE,112,2.7,-999.0,91,-99.99,,,0.00,Acu-Link.com,2013-08-08 03:20:00,
2013-08-07 23:35:00,57.9,55.6,30.15,ESE,112,2.7,-999.0,92,-99.99,,,0.00,Acu-Link.com,2013-08-08 03:35:00,
2013-08-07 23:50:00,57.9,55.6,30.15,ESE,112,2.2,-999.0,92,-99.99,,,0.00,Acu-Link.com,2013-08-08 03:50:00,